STARLINK-32402, 61708

Orbit data source: Space-Track

STARLINK-32402, 61708 is a payload satellite owned by SpaceX/Seattle (US) in LEO that was launched on Wed, 30 Oct 2024 UTC via an FALCON 9 launch vehicle from the Air Force Eastern Test Range (AFETR). Payload-class satellites include a variety of spacecraft equipped with specific instruments for various scientific and technological missions. These include communications satellites like Starlink; space stations such as the ISS; scientific satellites like the Hubble; Earth observation satellites from companies like Planet Labs, Umbra, and HawkEye 360; GPS; miniature CubeSats for education and research; and military/defense satellites.

Loading next visibility...
Identifier
61708, 2024-196B
Orbit
LEO
Last TLE update
1 day ago
Origin
Manufacturer
SpaceX/Seattle
Mission
Operational Commercial Communications
Bus & Motor
STARLINK V2M, Unknown motor
Mass
730 kg wet, ~700 kg dry
Launch date (UTC)
2024-10-30 (6 months ago)
Launch vehicle
FALCON 9
Launch site
Air Force Eastern Test Range (AFETR)
Object type
Payload
Rocket body
Debris
Shape & HBR
Box + 2 Pan, 29 m
Radar Cross Section
36.964 m², Large (>1 m²)

Expand to show TLE details & history

TLE from 1 day ago
0 STARLINK-32402
1 61708U 24196B   25128.58335184  .00000002  00000-0  12192-4 0  9990
2 61708  53.1608  78.5139 0001370  88.4983 271.6174 15.30186512 30442
Epoch: 2025-05-08T14:00Z
Definitive object data (Epoch: 2025-05-08T14:00:01.598Z)
Latitude
-0.0001°
Longitude
1.8554°
Altitude
476.129 km
Speed
7.629 km/s
True Right ascension
05h 14m 03s
True Declination
0° 00' 00"
Sunlit
Object was in daylight at TLE epoch
Visualization TLE readout
Latitude
-47.4993°
Longitude
-128.81391°
Altitude
492.351 km
Speed
7.618 km/s
Apparent Right ascension
16h 14m 34s
Apparent Declination
-63° 22' 43"
Sunlit
Object is in daylight
Visualization observer readout
Local Sidereal Time
00:19:44
Azimuth
215.525° SW
Elevation
-48.776°
Doppler factor
1
Orbital elements
Apogee altitude
476.451 km
Perigee altitude
474.573 km
Semi-major axis
6,853.649 km
Eccentricity
0.000137
Inclination
53.1608°
RAAN
78.5139°
Arg. of periapsis
88.4983°
True anomaly
271.60171°
Mean anomaly
271.6174°
Eccentric anomaly
271.60955°
Mean motion
3.82526 °/min
BSTAR
0.000012192
Orbital period
94.11 mins
Loading maneuver chart data...
Loading SW <> Apogee altitude chart data...
Loading historical data...
Loading historical data...
Loading historical data...
Loading historical data...
Loading historical data...
Loading historical data...
Loading historical data...

STARLINK-32402 Visibility forecast

Observer location: undefined°, undefined°

Span
Click to sort rows by Start time (UTC) header in descending order
Start Az.
Max El. time (UTC)
Max El. Az.
Max El.
End time (UTC)
End Az.
7 mins2025-05-09 23:05:18.427Z227.107° WSW2025-05-09 23:09:18.427Z62.119° ENE43.234°2025-05-09 23:12:18.427Z51.063° ENE
4 mins2025-05-10 04:03:18.427Z340.867° N2025-05-10 04:05:18.427Z15.029° NNE15.667°2025-05-10 04:07:18.427Z52.244° ENE
5 mins2025-05-10 05:42:18.427Z320.823° NNW2025-05-10 05:44:18.427Z78.262° E42.269°2025-05-10 05:47:18.427Z122.661° SE
|